Theta_e
294 294 295 295 296 296 296 296 297 299 300 303 304 305 305 303 300 297 292 293 293 295 290 290 290 292 292 291 291 288 288 287 288 290 291 289 289 284 284 287 285 284 281 280 281 283 284 285 285 285 284 283 283 281
293 294 294 295 295 295 295 296 295 296 297 298 300 303 306 303 300 297 290 291 292 291 289 288 286 286 287 289 289 289 290 288 290 291 290 289 285 281 282 285 287 283 284 286 286 286 286 283 280 279 278 279 280 279
293 293 293 294 294 295 295 295 296 294 294 295 296 299 301 304 301 297 290 290 292 289 288 289 288 285 286 288 288 290 287 290 289 287 289 287 286 286 282 282 284 284 280 282 283 284 283 281 280 279 278 278 277 276
293 293 293 293 294 294 294 295 295 295 296 295 294 295 298 301 301 297 291 291 293 291 291 286 284 283 285 286 287 288 287 286 286 286 286 284 286 286 286 286 285 285 283 281 283 285 283 281 279 277 278 277 275 273
293 293 293 293 293 294 294 294 294 294 295 295 294 294 296 298 300 294 291 292 294 294 289 285 283 283 286 285 285 286 286 287 285 285 285 284 286 285 284 283 283 283 285 284 284 280 279 280 277 276 274 272 271 271
292 292 293 293 293 293 294 294 294 294 294 294 294 294 293 295 292 292 291 290 291 289 289 288 281 281 283 285 286 286 288 288 285 285 284 284 282 285 281 280 284 280 279 279 279 276 276 275 275 271 270 270 269 267
291 292 293 293 293 293 293 294 294 294 294 294 293 293 293 292 291 293 292 290 290 288 286 285 284 280 279 282 281 284 284 280 282 280 283 284 283 281 280 279 280 278 276 275 274 274 275 274 271 268 268 267 266 264
291 292 292 292 293 293 293 293 293 293 292 292 293 293 293 293 292 292 291 291 289 289 289 287 282 283 279 281 278 279 281 279 277 280 279 281 280 278 280 276 276 274 273 273 273 271 270 268 267 266 265 264 263 263
291 292 292 292 293 293 293 293 293 292 292 292 292 293 291 289 289 291 290 288 288 289 288 287 285 285 277 279 278 279 282 280 274 279 280 278 277 278 278 274 271 269 269 270 267 263 262 262 262 262 263 262 260 261
291 291 292 292 293 293 293 293 293 292 293 291 291 290 291 288 288 289 290 291 289 285 285 283 282 281 281 280 278 280 280 280 277 278 276 275 277 274 271 269 270 269 267 263 262 263 260 260 259 259 259 262 261 261
291 292 292 293 293 293 293 293 293 293 292 291 291 290 288 289 288 289 287 291 287 285 281 280 282 281 279 281 277 281 278 276 278 276 276 275 276 276 270 269 270 269 268 266 266 266 265 263 259 258 259 262 262 262
292 292 292 292 292 293 293 293 291 291 290 290 289 287 286 287 288 286 283 280 286 284 276 281 280 278 275 279 277 275 276 275 279 273 274 273 278 270 269 268 267 267 266 265 265 264 264 263 263 263 262 262 262 262
292 292 292 292 293 292 292 292 291 290 289 288 288 287 289 285 290 290 286 280 276 274 273 275 277 276 274 277 275 278 277 275 271 274 275 278 271 267 264 262 260 265 264 264 263 263 263 263 263 263 262 263 262 262
292 292 292 292 292 292 292 292 291 290 290 291 290 286 287 285 284 279 280 281 277 277 280 277 278 279 276 276 277 277 270 271 274 274 276 273 268 267 264 261 260 259 262 262 262 263 263 262 262 263 262 262 261 261
291 291 291 291 291 290 291 292 291 289 280 282 282 279 273 267 267 266 266 273 277 279 278 279 280 279 276 273 272 271 270 273 275 277 274 268 263 264 263 261 259 258 261 261 262 262 262 262 262 262 262 262 261 261
290 291 290 288 287 285 284 287 286 279 273 273 270 272 269 274 273 273 274 275 273 278 281 280 278 275 273 273 272 273 274 276 276 269 265 262 261 260 259 261 263 263 263 262 262 262 262 262 262 262 261 262 262 261
289 290 290 289 289 285 285 282 277 274 274 274 271 269 270 273 273 271 273 271 272 279 278 276 275 275 270 272 275 272 274 271 265 264 263 261 261 260 262 262 262 262 262 262 262 262 262 262 261 260 259 263 262 261
293 291 290 290 289 283 278 277 276 274 272 270 272 268 269 268 271 271 271 269 272 273 274 274 271 271 271 273 273 268 266 263 262 262 262 260 263 263 263 262 263 262 262 262 262 262 261 261 260 260 262 261 260 261
289 290 289 287 284 281 277 274 275 272 269 270 269 270 270 269 268 269 267 268 268 270 272 271 273 271 269 265 265 263 262 262 262 261 261 264 264 263 262 262 262 262 262 262 262 261 261 261 261 261 261 260 259 260
287 286 286 284 282 279 275 273 275 274 272 270 269 269 269 267 265 266 267 267 268 268 265 266 262 261 262 260 258 259 259 261 259 260 261 261 263 262 262 262 262 262 262 262 261 261 261 261 262 261 261 260 258 259
285 282 282 281 275 271 267 270 269 269 270 269 265 268 268 268 266 266 264 265 264 261 261 260 259 258 260 259 259 260 262 262 258 257 258 259 262 262 262 262 262 261 260 260 260 260 261 262 262 261 260 260 260 259
281 281 280 279 273 270 267 265 269 267 268 266 267 267 267 266 264 261 261 263 260 258 257 256 256 255 254 256 259 259 259 260 261 261 261 261 256 260 262 262 261 260 260 260 260 260 260 260 260 260 260 260 259 259
280 280 276 276 273 272 267 267 269 267 271 266 264 267 264 263 261 261 261 258 258 259 258 258 258 258 257 258 259 260 260 259 259 261 261 261 260 260 260 260 260 259 257 260 261 260 260 260 259 259 259 259 259 259
279 265 267 267 271 267 264 266 265 266 266 267 267 266 264 262 260 264 261 259 259 260 260 259 259 257 260 260 259 261 260 259 259 259 260 260 259 259 260 260 260 260 260 261 260 260 260 260 259 258 258 258 258 258
275 264 264 268 264 268 267 265 265 267 264 261 264 264 261 257 263 260 262 259 259 257 256 259 259 259 256 258 260 260 260 259 258 256 257 258 258 258 258 259 260 260 261 260 259 259 258 258 258 257 257 257 257 257
264 257 261 260 262 265 263 266 263 264 262 262 260 258 257 263 262 260 259 258 257 256 257 257 257 256 256 259 257 258 258 258 257 255 256 258 258 257 256 255 256 258 260 259 258 258 258 258 257 257 256 257 257 257
264 259 256 256 256 258 260 260 260 261 261 261 260 262 262 263 261 259 259 259 258 259 258 257 257 257 257 257 257 257 257 257 256 257 257 257 257 256 255 255 255 257 257 257 257 257 256 256 256 256 256 256 256 256
254 254 261 256 256 256 256 256 256 255 257 255 255 258 260 261 260 259 259 258 258 258 258 258 257 258 257 257 257 257 257 257 257 258 259 260 260 260 259 258 258 259 258 258 257 257 256 256 255 255 254 254 255 256
255 251 253 256 255 254 253 253 254 252 252 252 256 257 257 258 258 259 259 258 258 258 257 256 257 258 258 257 257 257 257 256 255 252 252 255 257 259 259 258 257 257 257 257 258 257 256 256 256 256 256 256 256 256
253 250 254 254 256 254 253 251 253 251 251 250 251 255 257 257 259 259 259 259 259 258 258 257 257 256 255 255 256 256 256 257 256 255 253 255 256 257 257 257 257 257 256 256 256 256 257 256 256 256 255 256 255 255
251 252 255 256 256 255 252 253 252 252 252 252 253 253 254 252 259 260 260 259 259 259 258 257 256 257 256 256 255 255 255 256 257 256 256 256 256 256 256 256 256 256 256 256 255 255 255 254 253 253 253 254 254 254
254 254 255 257 257 253 253 255 256 256 257 257 256 257 256 256 255 259 260 260 260 259 258 257 256 256 257 256 255 255 256 255 256 257 256 256 255 256 256 256 256 256 256 256 256 255 255 254 254 254 254 255 255 255
257 256 255 257 257 258 256 256 258 258 258 257 256 253 253 252 257 259 261 260 259 258 257 257 257 257 256 256 257 256 257 257 256 256 256 256 256 256 256 256 256 256 256 256 256 256 256 256 256 256 256 256 256 256
Wind_Speed
17 17 17 16 15 14 11 9 8 11 9 15 16 28 63 69 67 42 22 32 14 3 3 2 2 4 4 4 5 7 5 1 0 2 3 4 3 4 2 3 6 7 6 4 2 2 8 4 3 2 2 3 7 9
20 19 18 18 17 16 16 13 11 9 10 4 9 10 49 58 61 42 14 26 19 5 4 7 8 5 3 1 6 10 2 5 5 3 1 3 2 2 4 3 2 1 6 4 7 5 3 3 3 3 3 3 7 9
19 19 19 18 17 17 15 14 13 8 9 6 3 8 13 37 63 48 29 35 17 4 3 5 3 4 5 6 9 5 1 4 3 2 3 2 3 4 4 4 2 3 3 3 3 4 4 6 5 5 2 2 5 7
20 20 19 19 19 18 16 15 14 14 11 11 6 3 15 22 36 44 31 36 22 5 4 2 5 5 5 4 3 4 12 8 8 2 2 2 3 2 3 2 3 3 5 5 4 4 3 7 7 6 7 6 8 13
21 19 19 19 19 18 17 16 15 15 15 12 11 9 8 15 28 34 26 34 23 8 4 4 7 7 11 9 14 16 19 6 2 2 2 2 3 3 2 2 3 5 5 4 3 4 3 2 7 9 9 10 12 11
19 21 20 20 19 19 19 17 16 14 15 16 15 12 9 16 27 27 3 11 19 19 5 4 3 3 12 19 21 18 11 4 3 3 1 2 2 2 3 4 3 4 5 3 4 4 1 4 3 14 9 10 14 14
19 20 22 22 21 20 20 18 16 15 15 18 14 12 10 12 32 6 7 20 28 16 4 5 3 1 2 5 5 4 10 3 3 2 2 2 1 2 1 4 6 7 6 5 6 3 1 6 3 11 10 12 12 13
19 20 21 22 22 21 20 19 18 19 20 19 15 12 17 20 22 4 14 44 27 15 3 4 3 3 1 2 2 3 3 2 5 2 1 2 2 2 4 2 7 6 5 4 7 5 1 4 4 5 8 10 8 7
21 22 20 22 23 22 21 20 21 21 20 19 18 22 23 5 4 7 36 24 13 6 4 3 7 4 2 1 2 2 2 3 2 1 1 2 2 5 6 7 8 6 6 7 3 1 1 2 3 4 6 8 4 7
22 21 22 23 25 25 24 24 25 25 23 26 15 4 2 5 44 32 7 3 2 2 3 3 3 4 3 3 1 3 1 3 2 1 2 2 3 1 3 4 7 8 7 7 3 1 2 2 3 3 5 10 11 15
23 24 25 25 26 26 25 26 27 27 26 7 2 2 17 31 4 2 3 2 2 3 2 2 3 7 0 3 3 1 3 1 3 3 3 3 3 4 8 7 7 11 12 10 7 3 4 6 4 4 8 10 15 17
26 26 25 25 25 25 27 31 32 17 11 10 11 12 5 3 2 5 3 2 1 4 1 4 3 3 1 2 3 2 4 2 3 3 2 3 3 5 9 7 6 11 10 8 8 7 6 7 9 12 12 14 16 17
23 23 23 24 25 27 30 31 26 19 24 20 2 3 1 1 3 5 6 0 3 4 5 4 4 4 2 2 3 3 4 3 2 2 4 4 4 4 6 4 3 9 8 5 5 5 5 7 9 11 14 14 15 17
23 23 23 24 24 25 28 32 26 22 10 2 3 4 0 2 1 3 1 4 2 7 11 5 4 3 2 3 3 5 1 3 1 2 6 3 5 8 6 3 5 5 8 6 6 5 8 9 12 12 13 13 14 18
23 20 19 18 17 16 29 40 31 20 7 3 4 3 3 2 1 0 2 2 4 8 5 6 5 4 3 5 2 4 4 3 6 5 2 2 3 7 5 4 5 4 7 7 6 7 9 11 13 16 14 13 16 20
19 19 17 28 36 29 37 45 30 6 4 4 7 4 2 2 2 2 4 6 4 1 2 4 4 4 1 5 4 5 8 6 4 2 2 3 4 4 4 6 8 7 7 7 8 10 11 12 14 16 18 18 18 16
16 5 26 30 29 23 26 14 9 7 4 4 3 3 2 5 4 2 3 3 4 1 3 3 5 4 2 3 2 3 5 2 3 2 2 2 4 4 7 7 7 6 7 8 10 11 14 14 14 16 19 20 15 18
29 48 45 38 22 15 8 6 5 5 7 4 4 4 2 4 2 3 3 3 2 2 2 3 5 3 4 5 2 2 2 1 2 2 2 2 4 6 7 6 5 5 7 10 11 13 15 15 16 19 18 17 19 20
38 37 33 21 5 7 4 5 5 5 4 1 2 1 3 3 2 1 2 3 2 1 4 2 5 3 1 2 2 1 2 2 1 1 1 4 5 7 8 5 5 7 9 11 13 15 16 16 19 21 20 19 19 20
29 18 10 10 5 5 5 4 5 5 3 2 2 2 2 1 2 1 3 4 3 3 6 5 2 0 2 1 2 2 2 3 2 1 1 2 5 8 7 6 7 8 10 12 15 16 16 18 18 16 15 16 17 23
13 6 6 3 7 15 5 3 5 3 3 3 1 1 2 1 3 4 4 5 5 3 3 2 2 2 4 3 3 3 3 3 1 1 2 1 3 4 8 10 9 9 9 12 15 17 15 19 21 16 17 19 20 21
4 5 4 7 6 6 5 9 3 1 3 2 3 3 3 3 3 3 3 5 3 2 2 2 2 2 3 2 4 4 5 5 5 6 7 7 3 4 5 6 7 12 15 17 17 20 22 19 18 19 19 21 19 21
5 6 9 11 7 7 2 3 4 5 4 0 1 3 3 3 1 3 3 2 2 2 3 2 7 9 8 6 6 5 5 7 8 9 9 12 13 14 16 17 15 16 18 21 16 17 19 19 18 19 19 19 20 23
10 9 7 5 6 2 1 4 2 3 3 3 3 3 2 1 3 3 3 2 0 1 2 8 10 5 2 4 2 4 5 6 11 14 11 12 14 16 13 16 19 20 20 21 21 23 23 23 20 18 17 19 22 24
7 10 6 7 4 5 5 4 4 4 3 3 3 2 2 2 3 3 2 1 2 2 2 10 10 8 1 2 8 8 11 10 11 12 18 15 16 18 19 14 14 16 16 18 21 21 19 16 16 18 20 22 26 27
9 5 5 5 4 4 2 3 3 2 3 3 2 2 1 2 4 2 1 2 2 1 3 4 5 3 4 6 8 12 14 15 16 14 19 11 11 13 12 10 11 15 9 9 11 14 17 19 21 24 27 27 27 26
6 5 3 0 1 1 3 3 2 4 5 3 2 2 2 4 2 1 0 3 2 5 12 10 9 9 10 16 19 20 20 18 15 20 26 26 24 22 20 16 14 14 12 15 18 21 25 29 29 29 30 30 26 26
2 4 4 4 4 3 3 3 4 3 1 3 1 5 3 2 2 1 2 3 6 11 14 13 9 10 16 20 20 21 21 20 22 23 13 10 7 10 9 11 12 13 19 24 26 27 28 29 30 30 28 29 32 28
3 3 2 5 4 5 4 3 2 1 2 1 2 2 2 1 1 2 1 3 9 13 16 18 17 18 21 20 18 18 17 19 16 5 4 4 6 11 14 22 26 27 26 26 25 26 25 26 29 31 33 33 33 32
4 2 3 4 5 4 2 1 1 1 2 1 0 2 2 1 2 1 2 6 10 13 17 16 18 19 18 18 21 22 22 17 11 10 5 6 13 26 31 30 28 27 27 28 30 31 30 29 30 30 29 31 30 28
1 2 4 4 3 1 1 1 1 1 0 2 2 3 1 2 2 1 5 6 8 10 18 18 20 22 19 20 19 19 18 14 13 22 24 27 31 32 31 30 30 30 30 31 32 32 31 29 27 27 28 28 30 28
3 4 3 4 1 1 1 1 1 2 2 3 3 2 1 2 2 2 6 11 11 14 20 22 21 25 30 29 25 23 23 24 24 26 28 28 29 30 31 31 30 30 29 29 31 32 30 29 29 29 28 30 31 31
2 2 3 3 2 2 2 2 3 2 3 3 3 2 1 1 1 3 14 11 11 17 27 28 30 32 31 27 26 23 20 25 29 31 30 30 29 29 29 30 28 28 29 30 30 30 30 30 31 31 31 31 32 32
Wind_Direction
208 204 199 200 201 195 204 218 186 159 158 198 210 211 196 190 184 177 169 170 148 118 98 79 61 135 138 141 144 151 105 297 115 162 148 191 132 202 137 175 175 164 156 191 153 191 269 38 2 153 312 330 353 3
206 205 203 201 199 198 196 196 208 197 134 168 193 184 202 190 183 174 136 163 151 88 107 107 94 90 52 65 122 181 118 149 165 125 219 104 105 109 179 223 146 251 187 184 178 208 149 24 118 109 50 342 352 343
212 208 206 203 202 201 200 199 190 183 218 209 181 209 186 186 182 181 152 151 137 100 75 119 115 43 127 107 133 122 315 176 115 178 145 150 140 141 163 239 156 276 146 185 60 301 61 128 119 98 55 347 350 354
214 211 207 204 202 199 199 198 195 190 186 191 209 237 204 212 188 180 160 166 147 113 117 105 102 59 48 65 202 166 137 100 114 64 113 150 135 142 185 154 169 181 129 196 256 275 3 144 92 35 345 1 355 338
212 209 207 205 202 200 198 195 196 188 182 172 168 192 160 168 176 170 164 168 172 128 117 114 117 37 55 94 99 118 112 95 104 70 85 176 92 108 66 54 239 178 190 181 221 117 166 285 15 359 15 349 334 331
210 206 204 202 200 198 199 196 192 186 177 168 150 138 131 176 164 132 112 206 168 122 116 131 58 22 72 79 69 57 54 57 78 123 159 58 353 118 144 213 193 98 76 66 122 68 66 286 290 25 358 336 334 327
208 205 204 198 193 193 195 194 187 177 175 170 158 141 147 128 158 155 175 162 151 118 91 111 100 69 46 54 36 36 45 60 70 152 56 122 115 77 181 221 157 122 116 99 79 56 239 86 334 338 332 329 321 306
207 202 198 193 189 190 190 188 179 171 166 167 155 161 184 179 175 211 130 149 131 93 88 115 100 137 219 110 78 333 73 61 8 98 360 110 52 65 253 185 118 115 121 117 117 88 98 336 337 334 332 324 314 308
201 197 191 185 184 185 184 180 173 165 157 138 140 124 113 104 111 106 135 125 78 90 123 140 139 155 123 86 138 71 82 80 258 107 81 75 179 221 223 166 167 175 173 147 86 37 40 176 269 285 295 301 287 301
192 188 184 181 182 182 176 173 170 159 146 134 122 93 119 114 126 115 99 119 102 75 43 88 126 128 156 172 59 103 26 131 142 216 101 148 254 136 133 128 133 145 145 128 113 307 207 261 231 267 251 278 276 281
179 180 181 182 180 177 173 168 160 144 142 132 109 69 129 141 127 71 98 133 151 109 64 94 97 124 303 116 131 315 157 138 120 249 129 243 268 183 148 131 141 144 160 186 194 176 204 211 235 256 284 292 300 302
177 178 177 172 170 169 165 160 141 143 151 141 121 129 140 136 77 92 79 133 243 127 144 117 111 105 141 110 107 265 103 66 172 146 94 259 235 144 148 146 129 146 163 173 200 215 241 254 266 272 282 290 300 305
161 159 160 159 160 162 162 160 152 132 126 120 113 101 186 35 127 148 151 191 109 169 175 152 124 120 114 96 81 93 103 159 92 107 227 227 143 142 136 124 129 159 169 171 206 230 252 268 277 273 281 290 297 294
141 144 152 158 163 166 167 166 143 141 120 198 151 113 186 168 87 71 61 122 118 129 137 127 110 114 146 72 102 101 265 94 112 230 234 211 176 154 145 153 132 190 178 197 224 245 260 271 280 284 283 292 288 288
135 134 148 158 164 161 194 180 162 143 51 53 14 66 51 228 238 335 295 105 107 128 141 116 76 85 59 87 64 113 56 219 202 228 218 160 127 131 154 171 175 176 189 213 238 243 257 272 277 285 292 289 288 290
131 123 113 117 110 97 105 136 131 97 75 62 39 81 314 58 28 42 72 101 356 19 79 57 90 78 95 137 107 190 139 215 231 163 144 113 135 153 162 167 182 189 205 234 253 263 272 270 274 285 293 291 292 283
167 150 142 134 122 95 98 93 56 45 50 51 50 32 304 59 59 51 26 6 321 336 101 112 91 180 109 64 123 175 196 202 176 109 88 92 156 180 178 177 193 213 231 249 263 268 272 282 285 282 285 300 299 294
126 136 145 148 127 87 79 72 108 81 71 28 60 342 33 11 48 40 13 350 329 101 65 150 128 112 139 140 237 202 104 102 48 100 129 143 146 166 185 192 208 236 258 268 272 276 280 282 274 273 286 294 296 295
116 125 138 145 112 90 80 53 55 92 69 60 141 8 77 95 63 255 260 302 282 240 116 55 66 70 87 35 73 38 53 67 140 198 172 186 193 198 201 221 248 271 275 273 276 276 279 275 275 283 285 288 282 295
124 119 140 164 109 81 75 36 40 81 79 86 28 40 90 80 272 339 22 1 24 46 41 41 70 81 41 3 3 24 51 26 61 18 263 195 200 203 223 251 264 269 276 283 285 287 282 282 282 287 285 284 282 290
112 78 110 85 64 64 78 19 58 73 124 82 285 341 74 33 31 22 12 339 57 31 59 17 46 24 350 299 312 336 350 350 359 141 206 286 158 246 274 281 282 277 273 280 278 282 276 271 292 289 282 288 293 294
77 119 97 51 79 65 75 17 93 95 70 101 44 22 33 37 16 359 302 46 55 31 35 358 342 326 333 2 359 330 309 300 290 290 288 278 296 292 276 274 272 276 278 273 275 275 283 290 291 285 284 297 302 297
99 56 53 32 73 48 329 342 72 6 86 350 27 56 18 39 323 332 69 68 89 43 352 321 313 300 274 313 329 318 298 284 286 289 291 289 286 286 287 287 285 274 276 286 287 282 283 296 292 289 291 298 303 301
48 49 40 47 44 88 16 32 54 68 55 40 63 65 10 9 320 58 78 56 239 317 355 350 352 338 1 2 352 332 308 296 297 303 303 289 288 293 293 287 286 279 275 286 285 285 288 293 297 289 289 298 302 300
65 3 25 19 8 56 51 27 14 54 70 4 84 41 318 359 75 57 74 338 8 16 342 359 11 20 340 300 311 309 315 306 302 294 300 298 284 287 295 302 298 294 296 284 280 288 295 298 294 289 292 294 296 295
64 338 49 350 358 70 344 72 43 115 114 63 43 245 10 78 63 50 29 340 333 336 344 346 341 326 305 274 293 302 308 311 307 287 300 303 285 274 280 295 304 307 303 285 289 295 300 300 298 297 295 294 293 293
59 351 348 337 68 51 52 39 35 65 59 75 338 8 67 70 72 265 113 31 327 333 328 326 318 298 289 302 310 317 314 309 291 289 301 295 290 281 269 266 275 291 291 293 296 298 299 300 297 294 292 294 287 289
105 16 72 325 47 18 89 48 43 48 17 331 31 37 91 78 138 74 47 4 21 15 8 353 321 310 316 318 320 321 322 323 318 319 311 310 324 319 304 295 300 308 304 301 300 299 296 295 293 289 284 281 288 288
45 337 33 40 49 49 46 40 54 24 314 327 90 71 90 53 77 138 214 334 355 356 348 349 355 346 344 337 334 332 328 325 315 333 322 303 317 327 325 319 314 312 310 308 307 305 298 294 293 292 291 287 288 288
338 3 79 54 58 34 314 347 8 325 26 71 308 115 83 48 174 225 328 345 344 347 349 342 340 339 325 327 326 327 336 336 311 273 263 289 299 307 311 312 312 312 310 307 307 307 307 303 301 296 290 289 286 284
278 359 69 57 85 30 71 358 289 245 318 36 9 84 122 292 278 290 359 339 327 337 348 341 336 343 333 332 328 322 320 330 317 313 309 308 310 310 312 314 314 313 310 308 306 301 298 294 286 283 282 280 280 278
15 45 100 96 107 249 226 293 326 69 28 49 15 12 348 44 9 293 350 346 331 332 345 339 329 324 331 329 321 311 309 310 315 319 316 312 307 307 307 307 308 306 300 294 291 289 286 283 282 281 281 282 283 284
68 49 63 98 96 91 8 43 41 74 46 45 21 352 340 144 242 302 345 336 334 339 340 333 334 331 325 327 329 327 326 324 321 320 316 315 314 312 305 300 300 298 296 292 289 288 286 284 282 282 284 285 286 286